[[{"header":{"parameterUnit":"m.s-1","parameterCategory":1,"la1":30.2992,"la2":30.254,"lo1":-89.0895,"lo2":-89.0443,"dy":0.0025,"dx":0.0025,"nx":19,"ny":19,"refTime":"2026-05-01T09:00:00:Z","depth":0,"parameterNumber":2,"parameterNumberName":"U-component_of_WINDS"},"data":[0,0,0,-2.3654,-2.3655,-2.3676,-2.3676,-2.3737,-2.3738,0,0,0,0,0,0,0,0,0,0,0,-2.3667,-2.3668,-2.3654,-2.3655,-2.3676,-2.3676,-2.3737,-2.3738,0,0,0,0,0,0,0,0,0,0,0,-2.3667,-2.3668,-2.3669,-2.3655,-2.3676,-2.3676,-2.3737,-2.3709,0,0,0,0,0,0,0,0,0,0,-2.3683,-2.3714,-2.3668,-2.3669,-2.3655,-2.3676,-2.3676,-2.3707,-2.3711,-2.3742,0,-2.3774,0,-2.3757,-2.3744,-2.3745,0,0,0,-2.3641,-2.3711,-2.3699,-2.367,-2.3656,-2.3676,-2.3662,-2.3709,-2.3713,-2.3747,-2.3774,-2.3776,-2.3758,-2.3745,-2.3745,-2.3971,-2.3973,0,0,-2.364,-2.3682,-2.3696,-2.3703,-2.37,-2.3662,-2.3663,-2.3711,-2.3744,-2.3775,-2.3777,-2.3759,-2.3745,-2.3746,-2.3969,-2.3971,0,0,0,-2.3646,-2.3682,-2.3667,-2.3701,-2.3702,-2.3663,-2.3664,-2.3742,-2.3733,-2.3777,-2.376,-2.3746,-2.3747,-2.3967,-2.397,-2.4098,0,0,0,-2.3644,-2.3685,-2.3668,-2.3694,-2.3702,-2.3722,-2.3695,-2.373,-2.3734,-2.3759,-2.3746,-2.3748,-2.3965,-2.3969,-2.409,-2.4153,0,0,0,-2.3659,-2.3687,-2.3696,-2.3697,-2.3707,-2.372,-2.3714,-2.373,-2.3725,-2.3745,-2.3748,-2.3964,-2.3968,-2.4083,-2.4141,-2.4227,0,0,0,-2.3688,-2.381,-2.3699,-2.3828,-2.3707,-2.3798,-2.3713,-2.3779,-2.3811,-2.3746,-2.3965,-2.397,-2.4081,-2.4134,-2.422,-2.4309,-2.4349,0,0,-2.3866,-2.3833,-2.3905,-2.3807,-2.3929,-2.3791,-2.3932,-2.3921,-2.3884,-2.3944,-2.3949,-2.4093,-2.4141,-2.4225,-2.4553,-2.4585,0,0,0,-2.3977,-2.403,-2.4052,-2.4085,-2.4078,-2.4079,-2.4042,-2.4038,-2.4087,-2.3923,-2.4143,-2.4171,-2.4219,-2.426,-2.4287,-2.4327,-2.3989,-2.3989,-2.3988,-2.4293,-2.4237,-2.4355,-2.4302,-2.4335,-2.4294,-2.4316,-2.4304,-2.424,-2.4293,-2.4312,-2.4517,-2.4566,-2.4586,-2.4629,-2.4351,-2.4351,-2.4352,-2.4352,-2.4552,-2.462,-2.4529,-2.4611,-2.4552,-2.462,-2.4586,-2.4538,-2.4595,-2.4498,-2.4537,-2.444,-2.4624,-2.4658,-2.4361,-2.436,-2.4358,-2.4357,-2.4357,-2.4756,-2.478,-2.4771,-2.4811,-2.4849,-2.479,-2.4849,-2.4792,-2.474,-2.4779,-2.4795,-2.4792,-2.4786,-2.4789,-2.479,-2.4791,-2.4791,-2.4792,-2.4792,-2.4974,-2.496,-2.5015,-2.5018,-2.5031,-2.5041,-2.5001,-2.5013,-2.5012,-2.4967,-2.4967,-2.49,-2.465,-2.4591,-2.4803,-2.4801,-2.48,-2.4799,-2.4798,-2.5265,-2.5189,-2.5275,-2.5289,-2.5287,-2.533,-2.5254,-2.5284,-2.5285,-2.5317,-2.5239,-2.5062,-2.5026,-2.5003,-2.4954,-2.5248,-2.5248,-2.5248,-2.5248,-2.5441,-2.5414,-2.549,-2.5515,-2.5533,-2.5474,-2.5575,-2.5545,-2.5502,-2.55,-2.5448,-2.5377,-2.5356,-2.5332,-2.5302,-2.5256,-2.562,-2.5621,-2.5621,-2.5618,-2.5591,-2.5688,-2.5643,-2.5637,-2.5634,-2.5728,-2.5763,-2.5698,-2.5635,-2.5498,-2.5483,-2.5366,-2.5331,-2.527,-2.5226,-2.5139,0,0]},{"header":{"parameterUnit":"m.s-1","parameterCategory":1,"la1":30.2992,"la2":30.254,"lo1":-89.0895,"lo2":-89.0443,"dy":0.0025,"dx":0.0025,"nx":19,"ny":19,"refTime":"2026-05-01T09:00:00:Z","depth":0,"parameterNumber":3,"parameterNumberName":"V-component_of_WINDS"},"data":[0,0,0,-4.319,-4.3191,-4.3232,-4.3232,-4.3289,-4.3289,0,0,0,0,0,0,0,0,0,0,0,-4.318,-4.3181,-4.3189,-4.3191,-4.3232,-4.3232,-4.3289,-4.3289,0,0,0,0,0,0,0,0,0,0,0,-4.318,-4.3181,-4.3181,-4.3191,-4.3232,-4.3232,-4.3289,-4.3256,0,0,0,0,0,0,0,0,0,0,-4.3214,-4.3209,-4.318,-4.3181,-4.3191,-4.3232,-4.3233,-4.3254,-4.3258,-4.3272,0,-4.3286,0,-4.3289,-4.3293,-4.3294,0,0,0,-4.3188,-4.3206,-4.3215,-4.3181,-4.3191,-4.3232,-4.3213,-4.3256,-4.326,-4.3277,-4.3287,-4.3289,-4.329,-4.3294,-4.3294,-4.3388,-4.3388,0,0,-4.3185,-4.3189,-4.3212,-4.3218,-4.3213,-4.3211,-4.3214,-4.3259,-4.3269,-4.3287,-4.329,-4.3291,-4.3294,-4.3295,-4.3387,-4.3388,0,0,0,-4.3181,-4.3187,-4.3195,-4.3216,-4.3223,-4.3213,-4.3216,-4.3267,-4.327,-4.3291,-4.3291,-4.3295,-4.3295,-4.3387,-4.3388,-4.342,0,0,0,-4.3179,-4.3185,-4.3194,-4.3196,-4.3222,-4.3246,-4.3223,-4.3266,-4.3271,-4.3291,-4.3295,-4.3296,-4.3386,-4.3387,-4.3418,-4.3435,0,0,0,-4.3176,-4.3184,-4.3192,-4.3197,-4.3215,-4.3245,-4.325,-4.3267,-4.3272,-4.3294,-4.3296,-4.3386,-4.3387,-4.3416,-4.3431,-4.3461,0,0,0,-4.3174,-4.3218,-4.3192,-4.3242,-4.3215,-4.3266,-4.325,-4.3287,-4.3309,-4.3295,-4.3386,-4.3388,-4.3415,-4.3429,-4.3459,-4.3487,-4.3499,0,0,-4.3232,-4.3225,-4.3255,-4.3232,-4.3289,-4.3259,-4.332,-4.3336,-4.3334,-4.337,-4.3372,-4.3419,-4.3431,-4.3461,-4.3565,-4.3575,0,0,0,-4.3274,-4.3295,-4.331,-4.3332,-4.3347,-4.3362,-4.3369,-4.3375,-4.3406,-4.3353,-4.3437,-4.3445,-4.3462,-4.3475,-4.3483,-4.3498,-4.3394,-4.3394,-4.3393,-4.336,-4.3357,-4.3406,-4.3409,-4.3431,-4.3439,-4.3456,-4.3466,-4.3454,-4.3474,-4.3485,-4.3549,-4.3564,-4.357,-4.3586,-4.3499,-4.3499,-4.3499,-4.3499,-4.3445,-4.3475,-4.3462,-4.3504,-4.35,-4.3535,-4.3544,-4.3536,-4.3567,-4.354,-4.3555,-4.3526,-4.3581,-4.3594,-4.3502,-4.3501,-4.3501,-4.3501,-4.3501,-4.3502,-4.3516,-4.3524,-4.3558,-4.3584,-4.3584,-4.3616,-4.3611,-4.3606,-4.3621,-4.3632,-4.3631,-4.363,-4.3627,-4.3627,-4.3627,-4.3627,-4.3627,-4.3627,-4.3557,-4.3565,-4.3594,-4.3615,-4.363,-4.3649,-4.3658,-4.3672,-4.3686,-4.3679,-4.3679,-4.3667,-4.3587,-4.3568,-4.3631,-4.363,-4.363,-4.363,-4.3629,-4.3644,-4.3624,-4.3668,-4.3684,-4.3709,-4.3736,-4.3729,-4.3758,-4.3769,-4.3785,-4.3769,-4.3712,-4.3704,-4.3697,-4.3681,-4.377,-4.377,-4.377,-4.377,-4.3692,-4.3689,-4.3733,-4.3758,-4.3782,-4.3781,-4.383,-4.3838,-4.3843,-4.3849,-4.3835,-4.3813,-4.3807,-4.3803,-4.3794,-4.3779,-4.389,-4.3891,-4.3891,-4.3746,-4.3745,-4.3789,-4.3795,-4.3815,-4.3832,-4.3878,-4.3906,-4.3906,-4.3896,-4.3854,-4.3849,-4.3813,-4.3802,-4.3789,-4.3776,-4.3748,0,0]}]]